| time (UTC) | temp C | wind direction | speed KPH | gust KPH | rain 1hr cm | rain 24hr cm | rain mn cm | humidity % | barometer mb |
| 20260906203538 | 30 | 211 | 12.9 | 29.0 | 0.00 | 1.65 | 1.65 | 55 | 1015.4 |
| 20260906203057 | 30 | 192 | 17.7 | 29.0 | 0.00 | 1.65 | 1.65 | 55 | 1015.3 |
| 20260906202535 | 30 | 202 | 12.9 | 29.0 | 0.00 | 1.65 | 1.65 | 54 | 1015.5 |
| 20260906202037 | 30 | 161 | 14.5 | 33.8 | 0.00 | 1.65 | 1.65 | 54 | 1015.5 |
| 20260906201606 | 30 | 222 | 17.7 | 33.8 | 0.00 | 1.65 | 1.65 | 53 | 1015.6 |
| 20260906201035 | 30 | 167 | 20.9 | 33.8 | 0.00 | 1.65 | 1.65 | 53 | 1015.7 |
| 20260906200537 | 30 | 155 | 16.1 | 33.8 | 0.00 | 1.65 | 1.65 | 54 | 1015.7 |
| 20260906200056 | 30 | 200 | 12.9 | 25.7 | 0.00 | 1.65 | 1.65 | 56 | 1015.7 |
| 20260906195534 | 30 | 212 | 14.5 | 24.1 | 0.00 | 1.65 | 1.65 | 58 | 1015.8 |
| 20260906195036 | 30 | 195 | 12.9 | 24.1 | 0.00 | 1.65 | 1.65 | 57 | 1015.8 |
| 20260906194601 | 30 | 196 | 14.5 | 20.9 | 0.00 | 1.65 | 1.65 | 54 | 1015.9 |
| 20260906194035 | 30 | 200 | 14.5 | 20.9 | 0.00 | 1.65 | 1.65 | 56 | 1015.9 |
| 20260906193536 | 30 | 191 | 12.9 | 20.9 | 0.00 | 1.65 | 1.65 | 57 | 1016.0 |
| 20260906193059 | 30 | 157 | 11.3 | 27.4 | 0.00 | 1.65 | 1.65 | 57 | 1016.0 |
| 20260906192535 | 29 | 186 | 12.9 | 29.0 | 0.00 | 1.65 | 1.65 | 55 | 1016.0 |
| 20260906192036 | 30 | 184 | 17.7 | 29.0 | 0.00 | 1.65 | 1.65 | 56 | 1016.1 |
| 20260906191555 | 29 | 202 | 11.3 | 27.4 | 0.00 | 1.65 | 1.65 | 58 | 1016.0 |
| 20260906191037 | 29 | 187 | 16.1 | 27.4 | 0.00 | 1.65 | 1.65 | 57 | 1016.1 |
| 20260906190539 | 29 | 165 | 16.1 | 25.7 | 0.00 | 1.65 | 1.65 | 58 | 1016.2 |
| 20260906185542 | 28 | 203 | 16.1 | 29.0 | 0.00 | 1.65 | 1.65 | 58 | 1016.3 |
| 20260906185037 | 28 | 193 | 14.5 | 29.0 | 0.00 | 1.65 | 1.65 | 58 | 1016.3 |
| 20260906184602 | 28 | 210 | 14.5 | 33.8 | 0.00 | 1.65 | 1.65 | 57 | 1016.4 |
| 20260906184035 | 28 | 182 | 14.5 | 33.8 | 0.00 | 1.65 | 1.65 | 59 | 1016.4 |
| 20260906183535 | 28 | 183 | 20.9 | 33.8 | 0.00 | 1.65 | 1.65 | 58 | 1016.4 |
| 20260906183058 | 28 | 193 | 16.1 | 29.0 | 0.00 | 1.65 | 1.65 | 60 | 1016.4 |
| 20260906182536 | 28 | 186 | 16.1 | 29.0 | 0.00 | 1.65 | 1.65 | 61 | 1016.5 |
| 20260906182035 | 28 | 211 | 14.5 | 30.6 | 0.00 | 1.65 | 1.65 | 63 | 1016.5 |
| 20260906181600 | 28 | 180 | 20.9 | 30.6 | 0.00 | 1.65 | 1.65 | 61 | 1016.7 |
| 20260906181036 | 28 | 207 | 19.3 | 33.8 | 0.00 | 1.65 | 1.65 | 62 | 1016.7 |
| 20260906180616 | 27 | 187 | 16.1 | 33.8 | 0.00 | 1.65 | 1.65 | 65 | 1016.7 |
| 20260906180114 | 27 | 167 | 14.5 | 32.2 | 0.00 | 1.65 | 1.65 | 65 | 1016.8 |
| 20260906175534 | 27 | 210 | 17.7 | 32.2 | 0.00 | 1.65 | 1.65 | 65 | 1017.0 |
| 20260906175030 | 27 | 201 | 14.5 | 38.6 | 0.00 | 1.65 | 1.65 | 65 | 1017.0 |
| 20260906174559 | 27 | 192 | 17.7 | 38.6 | 0.00 | 1.65 | 1.65 | 65 | 1017.0 |
| 20260906174036 | 27 | 173 | 20.9 | 37.0 | 0.00 | 1.65 | 1.65 | 64 | 1017.3 |
| 20260906173530 | 27 | 205 | 19.3 | 35.4 | 0.00 | 1.65 | 1.65 | 66 | 1017.2 |
| 20260906173057 | 26 | 206 | 20.9 | 33.8 | 0.00 | 1.65 | 1.65 | 67 | 1017.2 |
| 20260906172530 | 26 | 208 | 16.1 | 32.2 | 0.00 | 1.65 | 1.65 | 65 | 1017.4 |
| 20260906172034 | 26 | 203 | 19.3 | 32.2 | 0.00 | 1.65 | 1.65 | 66 | 1017.5 |
| 20260906171553 | 26 | 139 | 14.5 | 35.4 | 0.00 | 1.65 | 1.65 | 67 | 1017.5 |
| 20260906171033 | 26 | 155 | 19.3 | 35.4 | 0.00 | 1.65 | 1.65 | 67 | 1017.4 |
| 20260906170535 | 26 | 184 | 19.3 | 37.0 | 0.00 | 1.65 | 1.65 | 67 | 1017.5 |
| 20260906170054 | 26 | 136 | 22.5 | 41.8 | 0.00 | 1.65 | 1.65 | 67 | 1017.7 |
| 20260906165535 | 26 | 175 | 24.1 | 41.8 | 0.00 | 1.65 | 1.65 | 67 | 1017.8 |
| 20260906165033 | 26 | 203 | 16.1 | 27.4 | 0.00 | 1.65 | 1.65 | 68 | 1017.7 |
| 20260906164551 | 26 | 161 | 12.9 | 25.7 | 0.00 | 1.65 | 1.65 | 69 | 1017.6 |
| 20260906164034 | 25 | 188 | 16.1 | 25.7 | 0.00 | 1.65 | 1.65 | 69 | 1017.6 |
| 20260906163536 | 25 | 190 | 14.5 | 24.1 | 0.00 | 1.65 | 1.65 | 70 | 1017.5 |
| 20260906163057 | 25 | 183 | 14.5 | 25.7 | 0.00 | 1.65 | 1.65 | 72 | 1017.6 |
| 20260906162536 | 25 | 172 | 16.1 | 25.7 | 0.00 | 1.65 | 1.65 | 72 | 1017.5 |
| 20260906162034 | 24 | 150 | 16.1 | 27.4 | 0.00 | 1.65 | 1.65 | 75 | 1017.6 |
| 20260906161551 | 23 | 193 | 12.9 | 27.4 | 0.00 | 1.65 | 1.65 | 76 | 1017.8 |
| 20260906161033 | 23 | 200 | 14.5 | 25.7 | 0.00 | 1.65 | 1.65 | 75 | 1017.7 |
| 20260906160534 | 24 | 200 | 14.5 | 22.5 | 0.00 | 1.65 | 1.65 | 78 | 1017.8 |
| 20260906155537 | 23 | 192 | 11.3 | 22.5 | 0.00 | 1.65 | 1.65 | 79 | 1017.6 |
| 20260906155033 | 23 | 205 | 12.9 | 22.5 | 0.00 | 1.65 | 1.65 | 79 | 1017.6 |
| 20260906154605 | 23 | 180 | 8.0 | 27.4 | 0.00 | 1.65 | 1.65 | 81 | 1017.5 |
| 20260906154032 | 23 | 196 | 12.9 | 27.4 | 0.00 | 1.65 | 1.65 | 80 | 1017.6 |
| 20260906153531 | 23 | 143 | 14.5 | 27.4 | 0.00 | 1.65 | 1.65 | 80 | 1017.5 |
| 20260906153056 | 23 | 188 | 11.3 | 27.4 | 0.00 | 1.65 | 1.65 | 82 | 1017.6 |
| 20260906152532 | 22 | 129 | 16.1 | 25.7 | 0.00 | 1.65 | 1.65 | 83 | 1017.6 |
| 20260906152031 | 22 | 185 | 11.3 | 22.5 | 0.00 | 1.65 | 1.65 | 83 | 1017.4 |
| 20260906151553 | 22 | 188 | 14.5 | 25.7 | 0.00 | 1.65 | 1.65 | 83 | 1017.2 |
| 20260906151030 | 22 | 197 | 12.9 | 25.7 | 0.00 | 1.65 | 1.65 | 84 | 1017.3 |
| 20260906150534 | 22 | 200 | 16.1 | 24.1 | 0.00 | 1.65 | 1.65 | 84 | 1017.5 |
| 20260906150105 | 22 | 148 | 11.3 | 24.1 | 0.00 | 1.65 | 1.65 | 85 | 1017.5 |
| 20260906145530 | 22 | 144 | 14.5 | 24.1 | 0.00 | 1.65 | 1.65 | 85 | 1017.5 |
| 20260906145030 | 21 | 159 | 16.1 | 22.5 | 0.00 | 1.65 | 1.65 | 86 | 1017.3 |
| 20260906144554 | 21 | 175 | 11.3 | 25.7 | 0.00 | 1.65 | 1.65 | 87 | 1017.4 |
| 20260906144034 | 21 | 168 | 16.1 | 25.7 | 0.00 | 1.65 | 1.65 | 86 | 1017.4 |
| 20260906143534 | 21 | 118 | 17.7 | 25.7 | 0.00 | 1.65 | 1.65 | 86 | 1017.3 |
| 20260906143107 | 21 | 130 | 16.1 | 24.1 | 0.00 | 1.65 | 1.65 | 87 | 1017.2 |
| 20260906142535 | 21 | 108 | 16.1 | 25.7 | 0.00 | 1.65 | 1.65 | 87 | 1017.2 |
| 20260906142035 | 21 | 124 | 17.7 | 25.7 | 0.00 | 1.65 | 1.65 | 87 | 1017.2 |
| 20260906141601 | 20 | 115 | 17.7 | 25.7 | 0.00 | 1.65 | 1.65 | 87 | 1017.0 |
| 20260906141030 | 20 | 109 | 16.1 | 20.9 | 0.00 | 1.65 | 1.65 | 87 | 1017.1 |
| 20260906140534 | 20 | 101 | 14.5 | 19.3 | 0.00 | 1.65 | 1.65 | 87 | 1017.2 |
| 20260906140101 | 20 | 101 | 14.5 | 19.3 | 0.00 | 1.65 | 1.65 | 87 | 1017.1 |
| 20260906135533 | 19 | 82 | 12.9 | 17.7 | 0.00 | 1.65 | 1.65 | 86 | 1017.1 |
| 20260906135031 | 19 | 82 | 12.9 | 16.1 | 0.00 | 1.65 | 1.65 | 86 | 1017.2 |
| 20260906134552 | 18 | 101 | 11.3 | 16.1 | 0.00 | 1.65 | 1.65 | 86 | 1017.2 |
| 20260906134034 | 18 | 98 | 11.3 | 16.1 | 0.00 | 1.65 | 1.65 | 87 | 1017.3 |
| 20260906133533 | 18 | 94 | 9.7 | 12.9 | 0.00 | 1.65 | 1.65 | 87 | 1017.3 |
| 20260906133108 | 18 | 104 | 4.8 | 11.3 | 0.00 | 1.65 | 1.65 | 87 | 1017.4 |
| 20260906132535 | 18 | 101 | 8.0 | 14.5 | 0.00 | 1.65 | 1.65 | 87 | 1017.1 |
| 20260906132034 | 18 | 111 | 9.7 | 22.5 | 0.00 | 1.65 | 1.65 | 87 | 1017.0 |
| 20260906131604 | 19 | 90 | 11.3 | 27.4 | 0.00 | 1.65 | 1.65 | 87 | 1016.7 |
| 20260906131033 | 19 | 90 | 17.7 | 27.4 | 0.00 | 1.65 | 1.65 | 86 | 1016.5 |
| 20260906130533 | 19 | 93 | 16.1 | 24.1 | 0.00 | 1.65 | 1.65 | 86 | 1016.5 |
| 20260906125533 | 18 | 86 | 12.9 | 41.8 | 0.00 | 1.65 | 1.65 | 85 | 1016.8 |
| 20260906125034 | 18 | 83 | 29.0 | 41.8 | 0.00 | 1.65 | 1.65 | 83 | 1016.2 |
| 20260906124600 | 18 | 82 | 33.8 | 41.8 | 0.00 | 1.65 | 1.65 | 83 | 1015.1 |
| 20260906124035 | 18 | 86 | 20.9 | 35.4 | 0.00 | 1.65 | 1.65 | 83 | 1015.7 |
| 20260906123534 | 18 | 39 | 30.6 | 35.4 | 0.00 | 1.65 | 1.65 | 83 | 1016.1 |
| 20260906123102 | 18 | 11 | 14.5 | 38.6 | 0.00 | 1.65 | 1.65 | 82 | 1016.1 |
| 20260906122534 | 18 | 93 | 20.9 | 38.6 | 0.00 | 1.65 | 1.65 | 82 | 1015.6 |
| 20260906122030 | 18 | 111 | 29.0 | 37.0 | 0.00 | 1.65 | 1.65 | 82 | 1014.4 |
| 20260906121557 | 18 | 111 | 16.1 | 22.5 | 0.00 | 1.65 | 1.65 | 82 | 1016.1 |
| 20260906121035 | 18 | 143 | 8.0 | 12.9 | 0.00 | 1.65 | 1.65 | 82 | 1016.6 |
| 20260906120535 | 18 | 180 | 4.8 | 8.0 | 0.00 | 1.65 | 1.65 | 82 | 1016.7 |
| 20260906120126 | 18 | 224 | 4.8 | 8.0 | 0.00 | 1.65 | 1.65 | 82 | 1016.6 |
| 20260906115535 | 18 | 233 | 4.8 | 17.7 | 0.00 | 1.65 | 1.65 | 82 | 1016.4 |
| 20260906115037 | 18 | 219 | 6.4 | 22.5 | 0.00 | 1.65 | 1.65 | 82 | 1016.2 |
| 20260906114601 | 18 | 116 | 14.5 | 22.5 | 0.00 | 1.65 | 1.65 | 82 | 1015.9 |
| 20260906114035 | 18 | 102 | 14.5 | 22.5 | 0.00 | 1.65 | 1.65 | 82 | 1015.9 |
| 20260906113533 | 18 | 125 | 12.9 | 22.5 | 0.00 | 1.65 | 1.65 | 82 | 1016.1 |
| 20260906113057 | 18 | 105 | 14.5 | 22.5 | 0.00 | 1.65 | 1.65 | 82 | 1016.2 |
| 20260906112533 | 18 | 94 | 14.5 | 19.3 | 0.00 | 1.65 | 1.65 | 82 | 1016.1 |
| 20260906112033 | 18 | 130 | 6.4 | 17.7 | 0.00 | 1.65 | 1.65 | 82 | 1016.1 |
| 20260906111603 | 18 | 126 | 11.3 | 22.5 | 0.00 | 1.65 | 1.65 | 82 | 1016.0 |
| 20260906111035 | 18 | 116 | 12.9 | 24.1 | 0.00 | 1.65 | 1.65 | 82 | 1016.0 |
| 20260906110535 | 18 | 107 | 17.7 | 25.7 | 0.00 | 1.65 | 1.65 | 82 | 1015.6 |
| 20260906110053 | 17 | 132 | 19.3 | 25.7 | 0.00 | 1.65 | 1.65 | 82 | 1015.6 |
| 20260906105534 | 17 | 102 | 16.1 | 22.5 | 0.00 | 1.65 | 1.65 | 82 | 1015.6 |
| 20260906105038 | 17 | 113 | 14.5 | 24.1 | 0.00 | 1.65 | 1.65 | 82 | 1015.7 |
| 20260906104553 | 17 | 106 | 6.4 | 25.7 | 0.00 | 1.65 | 1.65 | 82 | 1015.7 |
| 20260906104034 | 17 | 83 | 14.5 | 46.7 | 0.00 | 1.65 | 1.65 | 82 | 1015.7 |
| 20260906103533 | 17 | 90 | 30.6 | 46.7 | 0.03 | 1.65 | 1.65 | 82 | 1015.2 |
| 20260906103052 | 17 | 109 | 35.4 | 53.1 | 0.05 | 1.65 | 1.65 | 82 | 1014.3 |
| 20260906102536 | 17 | 90 | 40.2 | 56.3 | 0.10 | 1.65 | 1.65 | 82 | 1014.9 |
| 20260906102034 | 17 | 104 | 35.4 | 59.5 | 0.18 | 1.65 | 1.65 | 82 | 1014.6 |
| 20260906101557 | 17 | 103 | 43.5 | 59.5 | 0.33 | 1.65 | 1.65 | 82 | 1014.2 |
| 20260906101037 | 17 | 85 | 41.8 | 54.7 | 0.76 | 1.65 | 1.65 | 82 | 1014.6 |
| 20260906100535 | 18 | 86 | 37.0 | 54.7 | 1.07 | 1.65 | 1.65 | 82 | 1015.2 |
| 20260906100059 | 18 | 82 | 43.5 | 54.7 | 1.14 | 1.65 | 1.65 | 82 | 1015.3 |
| 20260906095534 | 18 | 84 | 41.8 | 49.9 | 1.19 | 1.65 | 1.65 | 82 | 1015.4 |
| 20260906095034 | 18 | 78 | 37.0 | 45.1 | 1.24 | 1.65 | 1.65 | 82 | 1015.5 |
| 20260906094552 | 18 | 91 | 38.6 | 43.5 | 1.27 | 1.65 | 1.65 | 82 | 1015.9 |
| 20260906094033 | 17 | 64 | 30.6 | 35.4 | 1.27 | 1.65 | 1.65 | 82 | 1016.5 |
| 20260906093534 | 17 | 62 | 16.1 | 29.0 | 1.27 | 1.63 | 1.63 | 82 | 1017.1 |
| 20260906093100 | 17 | 84 | 24.1 | 29.0 | 1.24 | 1.60 | 1.60 | 82 | 1017.8 |
| 20260906092533 | 17 | 80 | 19.3 | 24.1 | 1.19 | 1.55 | 1.55 | 82 | 1018.1 |
| 20260906092033 | 17 | 60 | 16.1 | 19.3 | 1.12 | 1.47 | 1.47 | 82 | 1018.2 |
| 20260906091555 | 17 | 64 | 1.6 | 33.8 | 0.94 | 1.30 | 1.30 | 83 | 1019.0 |
| 20260906091034 | 17 | 321 | 16.1 | 33.8 | 0.51 | 0.86 | 0.86 | 83 | 1019.6 |
| 20260906090532 | 17 | 280 | 20.9 | 38.6 | 0.20 | 0.56 | 0.56 | 84 | 1019.4 |
| 20260906090057 | 17 | 315 | 24.1 | 38.6 | 0.15 | 0.48 | 0.48 | 85 | 1019.0 |
| 20260906085618 | 18 | 293 | 30.6 | 38.6 | 0.13 | 0.46 | 0.46 | 87 | 1018.3 |
| 20260906085035 | 18 | 299 | 29.0 | 38.6 | 0.08 | 0.41 | 0.41 | 87 | 1018.2 |
| 20260906084603 | 18 | 289 | 27.4 | 33.8 | 0.10 | 0.38 | 0.38 | 86 | 1018.3 |
| 20260906084035 | 18 | 298 | 24.1 | 33.8 | 0.20 | 0.38 | 0.38 | 86 | 1018.1 |
| 20260906083533 | 18 | 312 | 24.1 | 33.8 | 0.25 | 0.36 | 0.36 | 87 | 1017.7 |
| 20260906083126 | 17 | 333 | 25.7 | 38.6 | 0.30 | 0.36 | 0.36 | 83 | 1017.6 |
| 20260906082534 | 17 | 305 | 27.4 | 38.6 | 0.36 | 0.36 | 0.36 | 83 | 1017.9 |
| 20260906082035 | 17 | 307 | 27.4 | 41.8 | 0.36 | 0.36 | 0.36 | 83 | 1017.9 |
| 20260906081558 | 17 | 323 | 29.0 | 41.8 | 0.36 | 0.36 | 0.36 | 83 | 1018.0 |
| 20260906081034 | 17 | 297 | 32.2 | 48.3 | 0.36 | 0.36 | 0.36 | 83 | 1018.3 |
| 20260906080534 | 17 | 288 | 32.2 | 48.3 | 0.36 | 0.36 | 0.36 | 83 | 1018.3 |
| 20260906080056 | 17 | 292 | 33.8 | 48.3 | 0.33 | 0.33 | 0.33 | 83 | 1018.6 |
| 20260906075530 | 17 | 286 | 37.0 | 49.9 | 0.33 | 0.33 | 0.33 | 83 | 1018.7 |
| 20260906075034 | 17 | 289 | 35.4 | 51.5 | 0.33 | 0.33 | 0.33 | 83 | 1018.6 |
| 20260906074552 | 17 | 286 | 37.0 | 53.1 | 0.28 | 0.28 | 0.28 | 84 | 1018.7 |
| 20260906074033 | 17 | 280 | 33.8 | 64.4 | 0.18 | 0.18 | 0.18 | 84 | 1018.6 |
| 20260906073531 | 17 | 267 | 43.5 | 64.4 | 0.10 | 0.10 | 0.10 | 85 | 1018.7 |
| 20260906073052 | 17 | 264 | 51.5 | 64.4 | 0.05 | 0.05 | 0.05 | 85 | 1018.5 |
| 20260906072534 | 17 | 292 | 41.8 | 69.2 | 0.00 | 0.00 | 0.00 | 85 | 1018.4 |
| 20260906072032 | 17 | 277 | 45.1 | 69.2 | 0.00 | 0.00 | 0.00 | 87 | 1018.4 |
| 20260906071556 | 18 | 281 | 51.5 | 69.2 | 0.00 | 0.00 | 0.00 | 89 | 1018.3 |
| 20260906071035 | 19 | 281 | 40.2 | 83.7 | 0.00 | 0.00 | 0.00 | 87 | 1018.4 |
| 20260906070532 | 20 | 265 | 48.3 | 83.7 | 0.00 | 0.00 | 0.00 | 85 | 1018.6 |
| 20260906070053 | 21 | 263 | 49.9 | 83.7 | 0.00 | 0.00 | 0.00 | 79 | 1018.2 |
| 20260906065535 | 23 | 263 | 35.4 | 67.6 | 0.00 | 0.00 | 0.00 | 71 | 1018.1 |
| 20260906065034 | 25 | 340 | 3.2 | 8.0 | 0.00 | 0.00 | 0.00 | 79 | 1016.7 |
| 20260906064557 | 25 | 344 | 4.8 | 9.7 | 0.00 | 0.00 | 0.00 | 79 | 1016.4 |
| 20260906064034 | 25 | 300 | 6.4 | 9.7 | 0.00 | 0.00 | 0.00 | 79 | 1016.4 |
| 20260906063537 | 25 | 275 | 4.8 | 9.7 | 0.00 | 0.00 | 0.00 | 79 | 1016.4 |
| 20260906063050 | 25 | 0 | 1.6 | 9.7 | 0.00 | 0.00 | 0.00 | 79 | 1016.3 |
| 20260906062533 | 25 | 60 | 6.4 | 14.5 | 0.00 | 0.00 | 0.00 | 80 | 1016.0 |
| 20260906062034 | 25 | 26 | 6.4 | 14.5 | 0.00 | 0.00 | 0.00 | 81 | 1016.1 |
| 20260906061553 | 25 | 321 | 12.9 | 14.5 | 0.00 | 0.00 | 0.00 | 81 | 1016.2 |
| 20260906061035 | 25 | 275 | 3.2 | 16.1 | 0.00 | 0.00 | 0.00 | 81 | 1016.1 |
| 20260906060534 | 25 | 111 | 9.7 | 19.3 | 0.00 | 0.00 | 0.00 | 80 | 1015.9 |
| 20260906060058 | 25 | 109 | 12.9 | 19.3 | 0.00 | 0.00 | 0.00 | 80 | 1015.6 |
| 20260906055535 | 25 | 98 | 14.5 | 19.3 | 0.00 | 0.00 | 0.00 | 80 | 1015.6 |
| 20260906055032 | 25 | 98 | 14.5 | 19.3 | 0.00 | 0.00 | 0.00 | 81 | 1015.6 |
| 20260906054607 | 25 | 111 | 14.5 | 20.9 | 0.00 | 0.00 | 0.00 | 82 | 1015.7 |
| 20260906054031 | 25 | 94 | 16.1 | 20.9 | 0.00 | 0.00 | 0.00 | 83 | 1015.8 |
| 20260906053532 | 25 | 91 | 16.1 | 20.9 | 0.00 | 0.00 | 0.00 | 83 | 1015.8 |
| 20260906053059 | 25 | 87 | 14.5 | 20.9 | 0.00 | 0.00 | 0.00 | 83 | 1015.8 |
| 20260906052534 | 25 | 79 | 17.7 | 20.9 | 0.00 | 0.00 | 0.00 | 82 | 1015.9 |
| 20260906052032 | 25 | 80 | 11.3 | 16.1 | 0.00 | 0.00 | 0.00 | 82 | 1015.9 |
| 20260906051557 | 25 | 107 | 9.7 | 14.5 | 0.00 | 0.00 | 0.00 | 81 | 1015.9 |
| 20260906051032 | 25 | 112 | 9.7 | 17.7 | 0.00 | 0.00 | 0.00 | 81 | 1015.8 |
| 20260906050532 | 25 | 101 | 11.3 | 20.9 | 0.00 | 0.00 | 0.00 | 81 | 1015.5 |
| 20260906050106 | 25 | 103 | 14.5 | 22.5 | 0.00 | 0.00 | 0.00 | 81 | 1015.3 |
| 20260906045533 | 25 | 105 | 17.7 | 22.5 | 0.00 | 0.00 | 0.00 | 81 | 1015.1 |
| 20260906045035 | 25 | 110 | 14.5 | 19.3 | 0.00 | 0.00 | 0.00 | 81 | 1015.2 |
| 20260906044553 | 25 | 92 | 14.5 | 19.3 | 0.00 | 0.00 | 0.00 | 80 | 1015.3 |
| 20260906044034 | 25 | 110 | 9.7 | 22.5 | 0.00 | 0.00 | 0.00 | 79 | 1015.5 |
| 20260906043534 | 26 | 125 | 14.5 | 22.5 | 0.00 | 0.00 | 0.00 | 78 | 1015.6 |
| 20260906043048 | 26 | 123 | 12.9 | 20.9 | 0.00 | 0.00 | 0.00 | 77 | 1015.6 |
| 20260906042535 | 26 | 128 | 16.1 | 20.9 | 0.00 | 0.00 | 0.00 | 77 | 1015.6 |
| 20260906042035 | 26 | 132 | 12.9 | 22.5 | 0.00 | 0.00 | 0.00 | 76 | 1015.7 |
| 20260906041547 | 26 | 126 | 16.1 | 22.5 | 0.00 | 0.00 | 0.00 | 76 | 1015.8 |
| 20260906041035 | 26 | 109 | 16.1 | 24.1 | 0.00 | 0.00 | 0.00 | 76 | 1015.9 |
| 20260906040532 | 26 | 118 | 16.1 | 29.0 | 0.00 | 0.00 | 0.00 | 76 | 1015.9 |
| 20260906040103 | 26 | 114 | 17.7 | 29.0 | 0.00 | 0.00 | 0.00 | 76 | 1015.9 |
| 20260906035534 | 26 | 101 | 22.5 | 30.6 | 0.00 | 0.00 | 0.00 | 76 | 1015.8 |
| 20260906035034 | 26 | 84 | 20.9 | 30.6 | 0.00 | 0.00 | 0.00 | 77 | 1015.7 |
| 20260906034555 | 26 | 107 | 19.3 | 25.7 | 0.00 | 0.00 | 0.00 | 78 | 1015.7 |
| 20260906034033 | 26 | 92 | 19.3 | 25.7 | 0.00 | 0.00 | 0.00 | 78 | 1015.7 |
| 20260906033533 | 26 | 86 | 19.3 | 24.1 | 0.00 | 0.00 | 0.00 | 78 | 1015.8 |
| 20260906033051 | 26 | 84 | 19.3 | 24.1 | 0.00 | 0.00 | 0.00 | 78 | 1015.7 |
| 20260906032532 | 26 | 87 | 17.7 | 24.1 | 0.00 | 0.00 | 0.00 | 78 | 1015.7 |
| 20260906032034 | 26 | 76 | 19.3 | 24.1 | 0.00 | 0.00 | 0.00 | 77 | 1015.7 |
| 20260906031609 | 26 | 87 | 16.1 | 19.3 | 0.00 | 0.00 | 0.00 | 77 | 1015.5 |
| 20260906031034 | 26 | 89 | 14.5 | 17.7 | 0.00 | 0.00 | 0.00 | 76 | 1015.6 |
| 20260906030532 | 26 | 98 | 14.5 | 25.7 | 0.00 | 0.00 | 0.00 | 76 | 1015.5 |
| 20260906030051 | 26 | 111 | 16.1 | 25.7 | 0.00 | 0.00 | 0.00 | 75 | 1015.4 |
| 20260906025533 | 26 | 101 | 19.3 | 29.0 | 0.00 | 0.00 | 0.00 | 75 | 1015.3 |
| 20260906025033 | 26 | 98 | 19.3 | 29.0 | 0.00 | 0.00 | 0.00 | 75 | 1015.1 |
| 20260906024606 | 26 | 107 | 22.5 | 29.0 | 0.00 | 0.00 | 0.00 | 74 | 1014.9 |
| 20260906024035 | 26 | 107 | 19.3 | 24.1 | 0.00 | 0.00 | 0.00 | 74 | 1014.9 |
| 20260906023532 | 26 | 107 | 17.7 | 24.1 | 0.00 | 0.00 | 0.00 | 73 | 1014.7 |
| 20260906023100 | 27 | 86 | 17.7 | 24.1 | 0.00 | 0.00 | 0.00 | 73 | 1014.8 |
| 20260906022533 | 27 | 110 | 17.7 | 27.4 | 0.00 | 0.00 | 0.00 | 72 | 1014.6 |
| 20260906022032 | 27 | 106 | 19.3 | 27.4 | 0.00 | 0.00 | 0.00 | 72 | 1014.6 |
| 20260906021556 | 27 | 103 | 19.3 | 27.4 | 0.00 | 0.00 | 0.00 | 72 | 1014.4 |
| 20260906021034 | 26 | 88 | 19.3 | 24.1 | 0.00 | 0.00 | 0.00 | 72 | 1014.6 |
| 20260906020535 | 26 | 92 | 17.7 | 22.5 | 0.00 | 0.00 | 0.00 | 72 | 1014.6 |
| 20260906020049 | 26 | 99 | 17.7 | 20.9 | 0.00 | 0.00 | 0.00 | 71 | 1014.6 |
| 20260906015534 | 27 | 96 | 16.1 | 17.7 | 0.00 | 0.00 | 0.00 | 71 | 1015.0 |
| 20260906015034 | 27 | 92 | 14.5 | 19.3 | 0.00 | 0.00 | 0.00 | 70 | 1015.1 |
| 20260906014548 | 27 | 92 | 14.5 | 19.3 | 0.00 | 0.00 | 0.00 | 70 | 1015.1 |
| 20260906014038 | 27 | 78 | 14.5 | 20.9 | 0.00 | 0.00 | 0.00 | 70 | 1015.1 |
| 20260906013535 | 27 | 86 | 16.1 | 20.9 | 0.00 | 0.00 | 0.00 | 69 | 1015.1 |
| 20260906013059 | 27 | 82 | 16.1 | 19.3 | 0.00 | 0.00 | 0.00 | 69 | 1015.1 |
| 20260906012533 | 27 | 86 | 14.5 | 19.3 | 0.00 | 0.00 | 0.00 | 68 | 1015.1 |
| 20260906012034 | 27 | 84 | 14.5 | 20.9 | 0.00 | 0.00 | 0.00 | 68 | 1015.1 |
| 20260906011550 | 27 | 92 | 14.5 | 22.5 | 0.00 | 0.00 | 0.00 | 67 | 1015.1 |
| 20260906011036 | 27 | 88 | 16.1 | 24.1 | 0.00 | 0.00 | 0.00 | 66 | 1015.0 |
| 20260906010534 | 28 | 84 | 17.7 | 25.7 | 0.00 | 0.00 | 0.00 | 66 | 1015.0 |
| 20260906010100 | 28 | 101 | 17.7 | 27.4 | 0.00 | 0.00 | 0.00 | 65 | 1015.2 |
| 20260906005532 | 28 | 99 | 20.9 | 27.4 | 0.00 | 0.00 | 0.00 | 65 | 1015.2 |
| 20260906005032 | 28 | 92 | 19.3 | 27.4 | 0.00 | 0.00 | 0.00 | 64 | 1015.1 |
| 20260906004554 | 28 | 92 | 20.9 | 27.4 | 0.00 | 0.00 | 0.00 | 63 | 1015.1 |
| 20260906004033 | 28 | 84 | 19.3 | 25.7 | 0.00 | 0.00 | 0.00 | 62 | 1015.2 |
| 20260906003535 | 28 | 91 | 19.3 | 30.6 | 0.00 | 0.00 | 0.00 | 61 | 1015.1 |
| 20260906003050 | 28 | 78 | 20.9 | 33.8 | 0.00 | 0.00 | 0.00 | 60 | 1015.3 |
| 20260906002533 | 29 | 85 | 25.7 | 33.8 | 0.00 | 0.00 | 0.00 | 59 | 1015.1 |
| 20260906002034 | 29 | 88 | 25.7 | 33.8 | 0.00 | 0.00 | 0.00 | 58 | 1014.9 |
| 20260906001558 | 29 | 82 | 27.4 | 33.8 | 0.00 | 0.00 | 0.00 | 57 | 1014.7 |
| 20260906001032 | 30 | 86 | 27.4 | 35.4 | 0.00 | 0.00 | 0.00 | 56 | 1014.7 |
| 20260906000532 | 30 | 88 | 25.7 | 35.4 | 0.00 | 0.00 | 0.00 | 55 | 1014.7 |
| 20260906000108 | 30 | 94 | 27.4 | 35.4 | 0.00 | 0.00 | 0.00 | 54 | 1014.7 |
| 20260905235534 | 30 | 109 | 22.5 | 33.8 | 0.00 | 0.00 | 0.00 | 53 | 1014.6 |
| 20260905235033 | 30 | 102 | 27.4 | 37.0 | 0.00 | 0.00 | 0.00 | 53 | 1014.7 |
| 20260905234559 | 30 | 101 | 30.6 | 37.0 | 0.00 | 0.00 | 0.00 | 52 | 1014.6 |
| 20260905234035 | 30 | 101 | 29.0 | 38.6 | 0.00 | 0.00 | 0.00 | 52 | 1014.6 |
| 20260905233537 | 30 | 93 | 27.4 | 41.8 | 0.00 | 0.00 | 0.00 | 51 | 1014.6 |
| 20260905233052 | 30 | 103 | 32.2 | 43.5 | 0.00 | 0.00 | 0.00 | 50 | 1014.5 |
| 20260905232533 | 31 | 109 | 33.8 | 43.5 | 0.00 | 0.00 | 0.00 | 49 | 1014.4 |
| 20260905232034 | 31 | 101 | 30.6 | 46.7 | 0.00 | 0.00 | 0.00 | 49 | 1014.4 |
| 20260905231558 | 31 | 98 | 33.8 | 46.7 | 0.00 | 0.00 | 0.00 | 49 | 1014.2 |
| 20260905231032 | 31 | 101 | 33.8 | 45.1 | 0.00 | 0.00 | 0.00 | 49 | 1014.2 |
| 20260905230532 | 31 | 83 | 37.0 | 45.1 | 0.00 | 0.00 | 0.00 | 49 | 1014.0 |
| 20260905230052 | 31 | 110 | 29.0 | 43.5 | 0.00 | 0.00 | 0.00 | 48 | 1013.9 |
| 20260905225537 | 31 | 110 | 32.2 | 45.1 | 0.00 | 0.00 | 0.00 | 48 | 1014.0 |
| 20260905225039 | 31 | 90 | 32.2 | 51.5 | 0.00 | 0.00 | 0.00 | 47 | 1013.9 |
| 20260905224549 | 31 | 105 | 30.6 | 51.5 | 0.00 | 0.00 | 0.00 | 47 | 1014.0 |
| 20260905224034 | 31 | 108 | 40.2 | 51.5 | 0.00 | 0.00 | 0.00 | 49 | 1014.0 |
| 20260905223534 | 31 | 97 | 35.4 | 49.9 | 0.00 | 0.00 | 0.00 | 49 | 1013.8 |
| 20260905223058 | 31 | 113 | 38.6 | 49.9 | 0.00 | 0.00 | 0.00 | 50 | 1013.6 |
| 20260905222534 | 31 | 98 | 41.8 | 49.9 | 0.00 | 0.00 | 0.00 | 51 | 1013.5 |
| 20260905222032 | 31 | 98 | 40.2 | 56.3 | 0.00 | 0.00 | 0.00 | 50 | 1013.6 |
| 20260905221557 | 31 | 96 | 37.0 | 56.3 | 0.00 | 0.00 | 0.00 | 50 | 1013.8 |
| 20260905221034 | 31 | 91 | 41.8 | 53.1 | 0.00 | 0.00 | 0.00 | 52 | 1013.6 |
| 20260905220532 | 31 | 101 | 38.6 | 53.1 | 0.00 | 0.00 | 0.00 | 53 | 1013.7 |
| 20260905220052 | 31 | 103 | 41.8 | 51.5 | 0.00 | 0.00 | 0.00 | 53 | 1013.8 |
| 20260905215533 | 31 | 86 | 37.0 | 46.7 | 0.00 | 0.00 | 0.00 | 52 | 1013.8 |
| 20260905215032 | 31 | 97 | 37.0 | 48.3 | 0.00 | 0.00 | 0.00 | 51 | 1014.0 |
| 20260905214557 | 32 | 98 | 32.2 | 51.5 | 0.00 | 0.00 | 0.00 | 51 | 1014.0 |
| 20260905214034 | 31 | 98 | 32.2 | 51.5 | 0.00 | 0.00 | 0.00 | 51 | 1014.0 |
| 20260905213532 | 31 | 94 | 40.2 | 56.3 | 0.00 | 0.00 | 0.00 | 50 | 1014.0 |
| 20260905213100 | 31 | 92 | 40.2 | 56.3 | 0.00 | 0.00 | 0.00 | 50 | 1014.3 |
| 20260905212534 | 31 | 99 | 33.8 | 48.3 | 0.00 | 0.00 | 0.00 | 49 | 1014.5 |
| 20260905212034 | 31 | 101 | 35.4 | 48.3 | 0.00 | 0.00 | 0.00 | 49 | 1014.4 |
| 20260905211606 | 31 | 103 | 35.4 | 48.3 | 0.00 | 0.00 | 0.00 | 48 | 1014.5 |
| 20260905211034 | 31 | 87 | 40.2 | 49.9 | 0.00 | 0.00 | 0.00 | 47 | 1014.6 |
| 20260905210532 | 31 | 96 | 37.0 | 49.9 | 0.00 | 0.00 | 0.00 | 48 | 1014.8 |
| 20260905210104 | 31 | 96 | 29.0 | 48.3 | 0.00 | 0.00 | 0.00 | 47 | 1015.0 |
| 20260905205532 | 31 | 86 | 30.6 | 49.9 | 0.00 | 0.00 | 0.00 | 49 | 1015.0 |
| 20260905205034 | 31 | 88 | 35.4 | 49.9 | 0.00 | 0.00 | 0.00 | 50 | 1015.1 |
| 20260905204603 | 31 | 94 | 33.8 | 45.1 | 0.00 | 0.00 | 0.00 | 50 | 1015.2 |
| 20260905204032 | 31 | 96 | 33.8 | 45.1 | 0.00 | 0.00 | 0.00 | 50 | 1015.2 |